This demonstration page uses our WeatherBlox Daily Observations layout. Learn more.

Left ArrowRight Arrow

39.29038, -76.61219

Hourly Observations for March 21, 2015

Temp ( °F °C ) Dew Point ( °F °C ) Humidity (%) Winds ( mph kmh ) Pressure ( in mb ) Visibility ( mi km ) Precip ( " mm )
12:54 am 00:54 undefined 36 2.2 31 -0.6 82 82 undefined N/A 30.12 1020 N/A 0.00 0.00
1:54 am 01:54 undefined 36 2.2 31 -0.6 82 82 undefined N/A 30.12 1020 N/A 0.00 0.00
3:54 am 03:54 undefined 36 2.2 31 -0.6 82 82 undefined N/A 30.12 1020 N/A 0.00 0.00
4:54 am 04:54 undefined 36 2.2 31 -0.6 82 82 undefined N/A 30.10 1019 N/A 0.00 0.00
5:54 am 05:54 undefined 36 2.2 31 -0.6 82 82 undefined N/A 30.10 1019 N/A 0.00 0.00
6:54 am 06:54 undefined 35 1.7 31 -0.6 85 85 undefined N/A 30.09 1019 N/A 0.00 0.00
7:54 am 07:54 undefined 35 1.7 32 0 89 89 undefined N/A 30.11 1020 N/A 0.00 0.00
8:54 am 08:54 undefined 38 3.3 33 0.6 83 83 undefined N/A 30.14 1021 N/A 0.00 0.00
9:54 am 09:54 undefined 41 5 33 0.6 73 73 undefined N/A 30.14 1021 N/A 0.00 0.00
10:54 am 10:54 undefined 41 5 34 1.1 76 76 undefined N/A 30.11 1020 N/A 0.00 0.00
11:54 am 11:54 undefined 41 5 32 0 70 70 undefined N/A 30.11 1020 N/A 0.00 0.00
12:54 pm 12:54 undefined 46 7.8 35 1.7 66 66 undefined N/A 30.10 1019 N/A 0.00 0.00
1:54 pm 13:54 undefined 50 10 36 2.2 59 59 undefined N/A 30.07 1018 N/A 0.00 0.00
2:54 pm 14:54 undefined 54 12.2 37 2.8 53 53 undefined N/A 30.00 1016 N/A 0.00 0.00
3:54 pm 15:54 undefined 58 14.4 39 3.9 50 50 undefined N/A 29.98 1015 N/A 0.00 0.00
4:54 pm 16:54 undefined 56 13.3 39 3.9 53 53 undefined N/A 29.94 1014 N/A 0.00 0.00
5:54 pm 17:54 undefined 58 14.4 39 3.9 50 50 undefined N/A 29.91 1013 N/A 0.00 0.00
6:54 pm 18:54 undefined 58 14.4 38 3.3 48 48 undefined N/A 29.93 1014 N/A 0.00 0.00
7:54 pm 19:54 undefined 51 10.6 39 3.9 64 64 undefined N/A 29.93 1013 N/A 0.00 0.00
8:54 pm 20:54 undefined 50 10 39 3.9 66 66 undefined N/A 29.95 1014 N/A 0.00 0.00
9:54 pm 21:54 undefined 49 9.4 39 3.9 69 69 undefined N/A 29.96 1015 N/A 0.00 0.00
10:54 pm 22:54 undefined 48 8.9 39 3.9 71 71 undefined N/A 29.96 1015 N/A 0.00 0.00
11:54 pm 23:54 undefined 49 9.4 39 3.9 69 69 undefined N/A 29.97 1015 N/A 0.00 0.00

Powered by AerisWeather